FW5736 Weather Reports


time (UTC)temp
C
wind
direction
speed
KPH
gust
KPH
rain 1hr
cm
rain 24hr
cm
rain mn
cm
humidity
%
barometer
mb
20260503202604 17 10 0.0 0.0 0.00 0.00 0.00 92 1015.1
20260503202104 16 9 0.0 0.0 0.00 0.00 0.00 92 1015.1
20260503201604 16 10 0.0 0.0 0.00 0.00 0.00 92 1015.1
20260503201104 16 10 0.0 0.0 0.00 0.00 0.00 92 1015.0
20260503200104 16 10 0.0 0.0 0.00 0.00 0.00 92 1015.0
20260503195104 16 10 0.0 0.0 0.00 0.00 0.00 92 1014.8
20260503194604 16 10 0.0 0.0 0.00 0.00 0.00 92 1014.8
20260503194104 16 10 0.0 0.0 0.00 0.00 0.00 92 1014.7
20260503193604 16 10 0.0 0.0 0.00 0.00 0.00 92 1014.7
20260503192604 16 10 0.0 0.0 0.00 0.00 0.00 92 1014.7
20260503192104 16 10 0.0 0.0 0.00 0.00 0.00 92 1014.7
20260503191604 16 10 0.0 0.0 0.00 0.00 0.00 92 1014.7
20260503190604 16 10 0.0 0.0 0.00 0.00 0.00 92 1014.7
20260503190104 16 10 0.0 0.0 0.00 0.00 0.00 92 1014.7
20260503184604 16 10 0.0 0.0 0.00 0.00 0.00 92 1014.8
20260503184104 16 10 0.0 0.0 0.00 0.00 0.00 92 1014.7
20260503183604 16 10 0.0 0.0 0.00 0.00 0.00 92 1014.8
20260503183104 16 10 0.0 0.0 0.00 0.00 0.00 92 1014.9
20260503182604 16 10 0.0 0.0 0.00 0.00 0.00 92 1014.8
20260503182104 16 10 0.0 0.0 0.00 0.00 0.00 92 1014.8
20260503181604 16 10 0.0 0.0 0.00 0.00 0.00 91 1014.7
20260503180104 16 10 0.0 0.0 0.00 0.00 0.00 91 1014.7
20260503175104 16 10 0.0 0.0 0.00 0.00 0.00 91 1014.8
20260503174104 16 10 0.0 0.0 0.00 0.00 0.00 91 1014.8
20260503173604 16 10 0.0 0.0 0.00 0.00 0.00 91 1014.8
20260503171603 16 10 0.0 0.0 0.00 0.00 0.00 91 1014.9
20260503171103 16 10 0.0 0.0 0.00 0.00 0.00 91 1015.0
20260503170604 16 10 0.0 0.0 0.00 0.00 0.00 91 1015.0
20260503170103 16 10 0.0 0.0 0.00 0.00 0.00 91 1015.1
20260503160105 17 10 0.0 0.0 0.00 0.00 0.00 90 1015.8
20260503150605 17 10 0.0 0.0 0.00 0.00 0.00 89 1016.1
20260503150105 17 10 0.0 0.0 0.00 0.00 0.00 88 1016.1
20260503140105 18 10 0.0 0.0 0.00 0.00 0.00 87 1016.6
20260503131105 19 10 0.0 0.0 0.00 0.00 0.00 86 1017.1
20260503130105 19 10 0.0 0.0 0.00 0.00 0.00 86 1017.2
20260503120105 20 10 0.0 0.0 0.00 0.00 0.00 85 1017.6
20260503110605 20 10 0.0 0.0 0.00 0.00 0.00 85 1017.5
20260503110105 20 10 0.0 0.0 0.00 0.00 0.00 85 1017.5
20260503100105 21 5 0.0 0.0 0.00 0.00 0.00 84 1017.1
20260503090105 21 37 0.0 1.6 0.00 0.00 0.00 83 1017.2
20260503081604 21 37 0.0 4.8 0.00 0.00 0.00 80 1017.1
20260503080605 21 16 0.0 0.0 0.00 0.00 0.00 79 1017.1
20260503080105 21 15 3.2 11.3 0.00 0.00 0.00 79 1017.1
20260503072605 22 24 0.0 4.8 0.00 0.00 0.00 78 1017.0
20260503072104 22 28 1.6 9.7 0.00 0.00 0.00 77 1017.0
20260503071605 22 44 1.6 11.3 0.00 0.00 0.00 77 1016.9
20260503070604 22 9 1.6 4.8 0.00 0.00 0.00 76 1016.9
20260503060105 23 50 1.6 11.3 0.00 0.00 0.00 71 1017.0
20260503055104 23 39 1.6 12.9 0.00 0.00 0.00 70 1017.1
20260503054604 23 59 0.0 9.7 0.00 0.00 0.00 70 1017.1
20260503054104 23 21 0.0 4.8 0.00 0.00 0.00 70 1017.1
20260503053604 23 34 3.2 19.3 0.00 0.00 0.00 69 1017.2
20260503053104 23 37 3.2 16.1 0.00 0.00 0.00 69 1017.2
20260503052605 24 12 3.2 20.9 0.00 0.00 0.00 69 1017.2
20260503052105 24 57 1.6 14.5 0.00 0.00 0.00 69 1017.2
20260503051605 24 42 1.6 11.3 0.00 0.00 0.00 70 1017.3
20260503050605 23 32 3.2 19.3 0.00 0.00 0.00 70 1017.3
20260503050105 23 55 1.6 19.3 0.00 0.00 0.00 70 1017.4
20260503045604 23 31 4.8 14.5 0.00 0.00 0.00 69 1017.4
20260503045104 23 36 4.8 16.1 0.00 0.00 0.00 69 1017.5
20260503044604 23 55 8.0 22.5 0.00 0.00 0.00 69 1017.5
20260503044104 23 42 3.2 12.9 0.00 0.00 0.00 69 1017.6
20260503043604 23 57 3.2 14.5 0.00 0.00 0.00 68 1017.5
20260503043104 23 45 6.4 16.1 0.00 0.00 0.00 68 1017.6
20260503042605 23 44 1.6 19.3 0.00 0.00 0.00 67 1017.7
20260503042105 23 53 4.8 16.1 0.00 0.00 0.00 67 1017.7
20260503041104 23 37 1.6 16.1 0.00 0.00 0.00 66 1017.7
20260503040604 23 49 3.2 14.5 0.00 0.00 0.00 66 1017.7
20260503040104 23 50 1.6 16.1 0.00 0.00 0.00 66 1017.7
20260503035604 23 41 3.2 11.3 0.00 0.00 0.00 65 1017.8
20260503035104 23 33 3.2 14.5 0.00 0.00 0.00 65 1017.9
20260503034605 23 56 1.6 11.3 0.00 0.00 0.00 65 1017.9
20260503034105 24 48 1.6 11.3 0.00 0.00 0.00 65 1017.9
20260503033605 24 53 4.8 14.5 0.00 0.00 0.00 63 1017.9
20260503033105 24 45 4.8 14.5 0.00 0.00 0.00 62 1018.0
20260503032605 25 49 6.4 14.5 0.00 0.00 0.00 61 1018.1
20260503032104 25 50 1.6 8.0 0.00 0.00 0.00 62 1018.2
20260503031604 25 44 1.6 12.9 0.00 0.00 0.00 62 1018.2
20260503031104 25 48 1.6 14.5 0.00 0.00 0.00 62 1018.3
20260503030604 25 12 1.6 14.5 0.00 0.00 0.00 61 1018.3
20260503030104 25 53 8.0 16.1 0.00 0.00 0.00 61 1018.5
20260503025604 25 49 4.8 20.9 0.00 0.00 0.00 60 1018.6
20260503025104 25 50 1.6 8.0 0.00 0.00 0.00 60 1018.7
20260503024605 25 42 3.2 9.7 0.00 0.00 0.00 59 1018.7
20260503024105 25 45 4.8 16.1 0.00 0.00 0.00 58 1018.8
20260503023104 25 50 4.8 19.3 0.00 0.00 0.00 59 1018.8
20260503022604 25 34 1.6 11.3 0.00 0.00 0.00 59 1019.0
20260503022104 25 21 0.0 4.8 0.00 0.00 0.00 59 1019.1
20260503021604 25 26 3.2 8.0 0.00 0.00 0.00 57 1019.2
20260503021104 25 359 0.0 4.8 0.00 0.00 0.00 55 1019.3
20260503020604 25 359 3.2 8.0 0.00 0.00 0.00 55 1019.4
20260503020104 25 359 3.2 12.9 0.00 0.00 0.00 56 1019.6
20260503015604 24 359 3.2 8.0 0.00 0.00 0.00 57 1019.7
20260503015105 24 359 1.6 8.0 0.00 0.00 0.00 57 1019.8
20260503014605 24 359 3.2 8.0 0.00 0.00 0.00 59 1019.8
20260503014104 24 359 1.6 4.8 0.00 0.00 0.00 59 1020.0
20260503013605 24 13 1.6 8.0 0.00 0.00 0.00 59 1020.1
20260503012104 23 3 1.6 9.7 0.00 0.00 0.00 62 1020.3
20260503011605 23 359 0.0 8.0 0.00 0.00 0.00 63 1020.4
20260503010104 22 359 0.0 4.8 0.00 0.00 0.00 67 1020.6
20260503005604 22 359 0.0 4.8 0.00 0.00 0.00 67 1020.7
20260503005104 22 359 1.6 9.7 0.00 0.00 0.00 68 1020.8
20260503003604 22 359 3.2 11.3 0.00 0.00 0.00 70 1021.0
20260503003104 22 359 1.6 8.0 0.00 0.00 0.00 70 1021.0
20260503002104 21 359 1.6 3.2 0.00 0.00 0.00 73 1021.2
20260503001605 21 359 1.6 8.0 0.00 0.00 0.00 74 1021.3
20260503000604 21 1 1.6 4.8 0.00 0.00 0.00 75 1021.3
20260502235604 21 5 0.0 11.3 0.00 0.00 0.00 77 1021.2
20260502235104 20 359 0.0 4.8 0.00 0.00 0.00 78 1021.3
20260502234604 20 359 0.0 0.0 0.00 0.00 0.00 79 1021.3
20260502234104 20 359 0.0 8.0 0.00 0.00 0.00 79 1021.3
20260502233604 20 359 1.6 8.0 0.00 0.00 0.00 80 1021.5
20260502233104 20 359 0.0 3.2 0.00 0.00 0.00 80 1021.6
20260502232604 20 359 0.0 1.6 0.00 0.00 0.00 81 1021.6
20260502232105 20 359 3.2 8.0 0.00 0.00 0.00 82 1021.6
20260502231604 19 359 0.0 8.0 0.00 0.00 0.00 83 1021.7
20260502231105 19 359 1.6 4.8 0.00 0.00 0.00 84 1021.6
20260502230604 18 359 0.0 1.6 0.00 0.00 0.00 86 1021.8
20260502230104 18 359 0.0 4.8 0.00 0.00 0.00 87 1021.7
20260502225604 18 359 1.6 4.8 0.00 0.00 0.00 88 1021.9
20260502225104 18 359 0.0 4.8 0.00 0.00 0.00 88 1021.9
20260502224605 18 359 0.0 0.0 0.00 0.00 0.00 89 1021.9
20260502224104 17 359 1.6 4.8 0.00 0.00 0.00 90 1022.0
20260502223604 17 359 0.0 4.8 0.00 0.00 0.00 91 1022.0
20260502223104 17 359 1.6 4.8 0.00 0.00 0.00 91 1021.9
20260502222604 17 38 0.0 1.6 0.00 0.00 0.00 91 1021.8
20260502222104 17 39 0.0 0.0 0.00 0.00 0.00 91 1021.8
20260502221604 17 39 0.0 0.0 0.00 0.00 0.00 91 1021.9
20260502220104 16 39 0.0 0.0 0.00 0.00 0.00 91 1021.7
20260502215604 16 40 0.0 0.0 0.00 0.00 0.00 90 1021.6
20260502215104 16 39 0.0 0.0 0.00 0.00 0.00 90 1021.6
20260502214604 16 39 0.0 0.0 0.00 0.00 0.00 90 1021.6
20260502214104 16 39 0.0 0.0 0.00 0.00 0.00 90 1021.5
20260502213604 16 40 0.0 0.0 0.00 0.00 0.00 90 1021.3
20260502213104 16 39 0.0 0.0 0.00 0.00 0.00 90 1021.2
20260502212604 16 39 0.0 0.0 0.00 0.00 0.00 90 1021.2
20260502212105 16 39 0.0 0.0 0.00 0.00 0.00 90 1021.3
20260502211604 16 39 0.0 0.0 0.00 0.00 0.00 90 1021.2
20260502211104 16 39 0.0 0.0 0.00 0.00 0.00 90 1021.2
20260502210604 16 40 0.0 0.0 0.00 0.00 0.00 90 1021.3
20260502210104 16 39 0.0 0.0 0.00 0.00 0.00 90 1021.2
20260502205604 16 40 0.0 0.0 0.00 0.00 0.00 89 1021.2
20260502205104 16 39 0.0 0.0 0.00 0.00 0.00 89 1021.1
20260502204605 16 39 0.0 0.0 0.00 0.00 0.00 89 1021.1
20260502204104 16 40 0.0 0.0 0.00 0.00 0.00 89 1021.1
20260502203604 16 40 0.0 0.0 0.00 0.00 0.00 89 1021.0
20260502203104 16 40 0.0 0.0 0.00 0.00 0.00 89 1021.1